Tracking 23758 objects as of 27-Oct-2021
HD Live streaming from Space Station
objects crossing your sky now

IRIDIUM 33 DEB

Track IRIDIUM 33 DEB now!
10-day predictions


NORAD ID: 36486
Int'l Code: 1997-051WC
Perigee: 665.9 km
Apogee: 696.7 km
Inclination: 86.4 °
Period: 98.2 minutes
Semi major axis: 7052 km
RCS: 0.0127 m2 (small)
Launch date: September 14, 1997
Source: United States (US)
Launch site: TYURATAM MISSILE AND SPACE COMPLEX (TTMTR)

Note: This is SATELLITE DEBRIS
aabbcc
Your satellite tracking list
Your tracking list is empty




NASA's NSSDC Master Catalog

Two Line Element Set (TLE):
1 36486U 97051WC  21299.33807938  .00004394  00000-0  79711-3 0  9991
2 36486  86.3501 264.8373 0021832 109.9397 250.4171 14.65897895442247
Source of the keplerian elements: AFSPC